Regional Weather Roundup
Issued by NWS Huntsville, AL

Home | Current Version | Previous Version | Text Only | Print | Product List | Glossary On
Versions: 1 2 3 4 5 6 7 8 9 10 11 12 13 14 15 16 17 18 19 20 21 22 23 24 25 26 27 28 29 30 31 32 33 34 35 36 37 38 39 40 41 42 43 44 45 46 47 48 49 50
000
ASUS44 KHUN 040910
RWRHUN

WEATHER ROUNDUP FOR THE TENNESSEE VALLEY
NATIONAL WEATHER SERVICE HUNTSVILLE AL
400 AM CDT MON MAY 04 2015

ALZ001>004-041000-
NORTHWEST ALABAMA

CITY           SKY/WX    TMP DP  RH WIND       PRES   REMARKS
COURTLAND HCN    N/A     55 N/A N/A CALM        N/A
BANKHEAD NF      N/A     55  51  86 CALM        N/A
RUSSELLVILLE     N/A     55 N/A N/A MISG        N/A
SHOALS AIRPORT CLEAR     56  52  86 CALM      30.16R
$$

ALZ005>007-016-041000-
NORTH CENTRAL ALABAMA

CITY           SKY/WX    TMP DP  RH WIND       PRES   REMARKS
CULLMAN AG STN   N/A     50  32  50 CALM        N/A
DECATUR AP     CLEAR     52  51  97 CALM      30.16R
HUNTSVILLE AP  CLEAR     58  51  78 E3        30.16R
HUN NWS/UAH      N/A     59  51  74 NE2         N/A
MERIDIANVILLE  CLEAR     52  46  82 CALM      30.17R
REDSTONE ARSN  CLEAR     55  52  89 N3        30.15R
VINEMONT AP    FAIR      53  49  87 CALM      30.18R
$$

ALZ008>010-041000-
NORTHEAST ALABAMA

CITY           SKY/WX    TMP DP  RH WIND       PRES   REMARKS
ALBERTVILLE    PTCLDY    57  54  88 SE3       30.16S
FORT PAYNE     CLEAR     46  45  93 N3        30.18R
VALLEY HEAD      N/A     48 N/A N/A MISG        N/A
$$

TNZ076-096-097-041000-
SOUTHEASTERN MIDDLE TENNESSEE

CITY           SKY/WX    TMP DP  RH WIND       PRES   REMARKS
TULLAHOMA      CLEAR     48  46  93 CALM      30.19R
WINCHESTER     CLEAR     55  48  76 SE3       30.18R
$$

...SURROUNDING SITES...

CITY           SKY/WX    TMP DP  RH WIND       PRES   REMARKS
ATLANTA        CLEAR     62  49  62 CALM      30.19S
ANNISTON       CLEAR     54  51  90 E3        30.17S FOG
BIRMINGHAM     CLEAR     59  52  77 CALM      30.18R
CHATTANOOGA    CLEAR     53  49  86 W3        30.19R
CORINTH        FAIR      55  54  94 CALM      30.13R
DALTON         CLEAR     50  50 100 CALM      30.20R
GADSDEN        CLEAR    N/A N/A N/A CALM      30.16R
GOLDEN TRNGL   CLEAR     61  52  72 SW3       30.13R
HALEYVILLE       N/A     56  51  83 MISG      30.19R
JACKSON TN     MOCLDY    65  52  62 S9        30.11R
LEWISBURG      FAIR      49  47  93 CALM      30.16R
MEMPHIS        PTCLDY    64  54  69 S6        30.10R
NASHVILLE      PTCLDY    57  50  77 S5        30.16R
OXFORD MS      LGT RAIN  59  54  82 S6        30.14R
ROME           CLEAR     56  49  77 CALM      30.18R
SAVANNAH       CLEAR     57  32  38 CALM      30.15R
TUPELO         MOCLDY    61  52  72 SW3       30.13R
TUSCALOOSA     CLEAR     56  53  90 CALM      30.15R FOG
$$

...GULF COAST WEATHER...

CITY           SKY/WX    TMP DP  RH WIND       PRES   REMARKS
GULFPORT       PTCLDY    70  65  84 SE8       30.09F
PASCAGOULA     PTCLDY    60  60 100 CALM      30.11F
MOBILE         CLEAR     63  61  93 CALM      30.12F
GULF SHORES    SUNNY     60  60  97 CALM      30.12S
PENSACOLA      CLEAR     62  60  93 CALM      30.12S
DESTIN         CLEAR     66  64  93 NE5       30.14S
PANAMA CITY    CLEAR     63  60  89 E6        30.16S
APPALACHICOLA  PTCLDY    68  60  75 NE6       30.16S
$$



USA.gov is the U.S. government's official web portal to all federal, state and local government web resources and services.